Regional Weather Roundup
Issued by NWS Cleveland, OH

Home | Current Version | Previous Version | Graphics & Text | Print | Product List | Glossary On
Versions: 1 2 3 4 5 6 7 8 9 10 11 12 13 14 15 16 17 18 19 20 21 22 23 24 25 26 27 28 29 30 31 32 33 34 35 36 37 38 39 40 41 42 43 44 45 46 47 48 49 50
000
ASUS41 KCLE 171510
RWRCLE
OHIO REGIONAL WEATHER ROUNDUP
NATIONAL WEATHER SERVICE CLEVELAND, OH
1000 AM EST WED DEC 17 2014

NOTE: "FAIR" INDICATES FEW OR NO CLOUDS BELOW 12,000 FEET WITH NO
SIGNIFICANT WEATHER AND/OR OBSTRUCTIONS TO VISIBILITY.

OHZ001>008-015>018-024>027-034-035-043-044-171600-
   NORTHWEST OHIO

CITY           SKY/WX    TMP DP  RH WIND       PRES   REMARKS
DEFIANCE       NOT AVBL
FINDLAY        CLOUDY    32  24  72 W18       30.14R WCI  20
TOLEDO EXPRESS CLOUDY    31  23  72 W16G26    30.12R WCI  20
TOLEDO EXEC    CLOUDY    33  24  69 W17G25    30.13R WCI  22
LIMA           CLOUDY    32  25  75 W18       30.16R WCI  20
$$

OHZ009>014-019>023-028>033-038-089-171600-
   NORTHEAST OHIO

CITY           SKY/WX    TMP DP  RH WIND       PRES   REMARKS
CLE-HOPKINS    CLOUDY    33  25  72 W20       30.10R WCI  21
CLE-LAKEFRONT  CLOUDY    35  28  75 W25G36    30.07R WCI  23
CUY CO. ARPT   NOT AVBL
LORAIN-ELYRIA  CLOUDY    33  25  72 W16G22    30.10R WCI  23
ASHTABULA      LGT SNOW  33  30  88 W21G29    30.03R FOG     WCI  21
AKRON-CANTON   LGT SNOW  33  27  78 W17G23    30.07R WCI  22
WOOSTER        CLOUDY    32  27  81 W21G26    30.10R WCI  20
MANSFIELD      CLOUDY    31  24  75 W20G31    30.10R WCI  19
YOUNGSTOWN     LGT SNOW  33  30  88 W17G26    30.03R FOG     WCI  22
$$

OHZ042-051>053-060>062-070>072-077>081-171600-
  SOUTHWEST OHIO

CITY           SKY/WX    TMP DP  RH WIND       PRES   REMARKS
CINC-COVINGTON CLOUDY    31  24  75 W8        30.25R WCI  23
CINC-LUNKEN    CLOUDY    31  24  75 W14       30.28R WCI  21
HAMILTON       CLOUDY    32  27  81 W9        30.26R WCI  24
DAYTON         CLOUDY    31  25  78 W15       30.22R WCI  20
WRIGHT-PAT AFB CLOUDY    31  26  81 W13       30.21R WCI  21
DAYTON GENERAL CLOUDY    30  24  78 W9        30.22R WCI  22
WILMINGTON     CLOUDY    30  23  75 W13       30.21R WCI  20
$$

OHZ036-037-039>041-045>050-054>059-063>069-073>076-082>088-171600-
  CENTRAL AND SOUTHEAST OHIO

CITY           SKY/WX    TMP DP  RH WIND       PRES   REMARKS
COLUMBUS       CLOUDY    31  24  75 W15       30.18R WCI  20
OSU AIRPORT    CLOUDY    32  22  66 W17G25    30.17R WCI  21
BOLTON FIELD   CLOUDY    30  25  80 W12       30.19R WCI  21
RICKENBACK AFB CLOUDY    32  26  77 NW10      30.19R WCI  24
NEWARK         CLOUDY    33  26  75 W10G23    30.16R WCI  25
MARION         CLOUDY    32  24  72 W10       30.14R WCI  24
LANCASTER      CLOUDY    33  26  75 W8        30.19R WCI  26
ZANESVILLE     CLOUDY    33  24  69 W17G25    30.15R WCI  22
NEW PHILLY     CLOUDY    35  27  72 W9G18     30.12R WCI  28
$$


USA.gov is the U.S. government's official web portal to all federal, state and local government web resources and services.